RYR5ZC LEPA-EGCC

Flight info

Callsign RYR5ZC
Flight time N/A
Altitude 34000
Route DRAGO DCT PAPOS DCT UMURE N863 GIROM DCT AGN DCT SECHE DCT UVELI DCT CNA DCT TUPAR UN861 ANG DCT AKIKI UN867 AVANT UM184 HEMEL T420 ELVOS
Aircraft B738/M-SDE2E3FGHIRWXY/LB1

Departure

Time N/A
Airport Palma de Mallorca Airport (LEPA)

Arrival

Time 2026-05-04 23:32
Airport Manchester Airport (EGCC)
Time Latitude Longitude Altitude Speed Heading
2026-05-04 22:45 49.68716 -1.40916 33995 ft 448 kts
2026-05-04 22:45 49.71636 -1.40608 33995 ft 448 kts
2026-05-04 22:46 49.76958 -1.40091 34002 ft 448 kts
2026-05-04 22:46 49.81875 -1.39643 34000 ft 448 kts
2026-05-04 22:47 49.87384 -1.39146 33998 ft 448 kts
2026-05-04 22:47 49.93110 -1.38628 34005 ft 447 kts
2026-05-04 22:48 49.98452 -1.38141 34010 ft 447 kts
2026-05-04 22:48 50.03139 -1.37449 34004 ft 447 kts
2026-05-04 22:49 50.08895 -1.35978 33994 ft 446 kts 10°
2026-05-04 22:49 50.15960 -1.34040 34004 ft 447 kts 13°
2026-05-04 22:50 50.21852 -1.31094 34010 ft 446 kts 20°
2026-05-04 22:50 50.26740 -1.28314 34004 ft 447 kts 20°
2026-05-04 22:51 50.32554 -1.25043 34005 ft 447 kts 20°
2026-05-04 22:51 50.38423 -1.21814 34005 ft 447 kts 20°
2026-05-04 22:52 50.44280 -1.18620 34013 ft 443 kts 19°
2026-05-04 22:52 50.50041 -1.15478 34001 ft 435 kts 19°
2026-05-04 22:53 50.55764 -1.12346 34014 ft 437 kts 19°
2026-05-04 22:53 50.61514 -1.09189 34014 ft 438 kts 19°
2026-05-04 22:54 50.67233 -1.06041 34017 ft 437 kts 20°
2026-05-04 22:54 50.72904 -1.02912 34005 ft 428 kts 20°
2026-05-04 22:55 50.78532 -0.99798 34023 ft 429 kts 20°
2026-05-04 22:55 50.84173 -0.96669 34022 ft 431 kts 20°
2026-05-04 22:56 50.89841 -0.93516 34021 ft 432 kts 20°
2026-05-04 22:56 50.95516 -0.90351 34026 ft 432 kts 20°
2026-05-04 22:57 51.01184 -0.87183 34016 ft 432 kts 20°
2026-05-04 22:57 51.06824 -0.84022 34017 ft 432 kts 20°
2026-05-04 22:58 51.12470 -0.80850 34027 ft 432 kts 20°
2026-05-04 22:58 51.18132 -0.77659 34030 ft 431 kts 20°
2026-05-04 22:59 51.23777 -0.74470 34012 ft 430 kts 20°
2026-05-04 22:59 51.29408 -0.71281 34022 ft 429 kts 20°
2026-05-04 23:00 51.35029 -0.68089 34046 ft 428 kts 20°
2026-05-04 23:00 51.40597 -0.64920 34033 ft 426 kts 20°
2026-05-04 23:01 51.46166 -0.61741 34054 ft 424 kts 20°
2026-05-04 23:01 51.51715 -0.58566 34045 ft 423 kts 20°
2026-05-04 23:02 51.57249 -0.55391 34048 ft 422 kts 20°
2026-05-04 23:02 51.62771 -0.52213 34050 ft 421 kts 20°
2026-05-04 23:03 51.68251 -0.49053 34052 ft 421 kts 20°
2026-05-04 23:03 51.73771 -0.45862 34045 ft 421 kts 20°
2026-05-04 23:04 51.79402 -0.43334 34017 ft 423 kts 359°
2026-05-04 23:04 51.82300 -0.43960 34056 ft 421 kts 342°
2026-05-04 23:04 51.84938 -0.45874 33930 ft 414 kts 329°
2026-05-04 23:05 51.87369 -0.48308 33609 ft 407 kts 326°
2026-05-04 23:05 51.89739 -0.50754 33237 ft 402 kts 327°
2026-05-04 23:05 51.92067 -0.53098 32909 ft 398 kts 327°
2026-05-04 23:05 51.94423 -0.55427 32511 ft 395 kts 328°
2026-05-04 23:06 51.96766 -0.57714 32130 ft 392 kts 328°
2026-05-04 23:06 51.99099 -0.59983 31761 ft 389 kts 327°
2026-05-04 23:06 52.01411 -0.62234 31400 ft 387 kts 327°
2026-05-04 23:06 52.03710 -0.64478 31046 ft 384 kts 327°
2026-05-04 23:07 52.05996 -0.66716 30713 ft 381 kts 327°
2026-05-04 23:07 52.08261 -0.68935 30358 ft 379 kts 327°
2026-05-04 23:07 52.10510 -0.71144 29996 ft 377 kts 327°
2026-05-04 23:07 52.12702 -0.73297 29612 ft 374 kts 327°
2026-05-04 23:08 52.14915 -0.75482 29247 ft 370 kts 327°
2026-05-04 23:08 52.17103 -0.77649 28880 ft 367 kts 327°
2026-05-04 23:08 52.19276 -0.79805 28524 ft 363 kts 327°
2026-05-04 23:08 52.21422 -0.81936 28166 ft 361 kts 327°
2026-05-04 23:09 52.23560 -0.84060 27817 ft 357 kts 327°
2026-05-04 23:09 52.25675 -0.86162 27465 ft 355 kts 327°
2026-05-04 23:09 52.27778 -0.88247 27111 ft 353 kts 327°
2026-05-04 23:09 52.29872 -0.90321 26770 ft 350 kts 326°
2026-05-04 23:10 52.31948 -0.92379 26429 ft 348 kts 326°
2026-05-04 23:10 52.33982 -0.94400 26098 ft 346 kts 326°
2026-05-04 23:10 52.36028 -0.96434 25764 ft 343 kts 326°
2026-05-04 23:10 52.38061 -0.98459 25434 ft 341 kts 326°
2026-05-04 23:11 52.40082 -1.00476 25110 ft 340 kts 326°
2026-05-04 23:11 52.42097 -1.02488 24777 ft 338 kts 326°
2026-05-04 23:11 52.44096 -1.04485 24441 ft 337 kts 326°
2026-05-04 23:11 52.46095 -1.06485 24110 ft 335 kts 326°
2026-05-04 23:12 52.48078 -1.08470 23781 ft 334 kts 326°
2026-05-04 23:12 52.50061 -1.10466 23418 ft 333 kts 325°
2026-05-04 23:12 52.52026 -1.12458 23060 ft 331 kts 324°
2026-05-04 23:12 52.53955 -1.14416 22717 ft 329 kts 324°
2026-05-04 23:13 52.55893 -1.16385 22386 ft 326 kts 324°
2026-05-04 23:13 52.57817 -1.18335 22063 ft 324 kts 325°
2026-05-04 23:13 52.59730 -1.20270 21724 ft 322 kts 325°
2026-05-04 23:13 52.61630 -1.22194 21408 ft 319 kts 325°
2026-05-04 23:14 52.63515 -1.24105 21083 ft 317 kts 325°
2026-05-04 23:14 52.65351 -1.25967 20782 ft 315 kts 325°
2026-05-04 23:14 52.67202 -1.27848 20469 ft 313 kts 325°
2026-05-04 23:14 52.69050 -1.29726 20160 ft 312 kts 325°
2026-05-04 23:15 52.70895 -1.31604 19813 ft 312 kts 325°
2026-05-04 23:15 52.72754 -1.33495 19462 ft 316 kts 325°
2026-05-04 23:15 52.74634 -1.35408 19118 ft 319 kts 325°
2026-05-04 23:15 52.76531 -1.37340 18758 ft 322 kts 326°
2026-05-04 23:16 52.78449 -1.39296 18362 ft 325 kts 326°
2026-05-04 23:16 52.80377 -1.41263 17925 ft 325 kts 326°
2026-05-04 23:16 52.82280 -1.43207 17516 ft 324 kts 326°
2026-05-04 23:16 52.84169 -1.45138 17127 ft 323 kts 326°
2026-05-04 23:17 52.86078 -1.47092 16745 ft 321 kts 326°
2026-05-04 23:17 52.87973 -1.49035 16373 ft 320 kts 326°
2026-05-04 23:17 52.89860 -1.50971 15992 ft 319 kts 326°
2026-05-04 23:17 52.91738 -1.52900 15619 ft 317 kts 326°
2026-05-04 23:18 52.93613 -1.54829 15254 ft 316 kts 326°
2026-05-04 23:18 52.95473 -1.56744 14893 ft 315 kts 326°
2026-05-04 23:18 52.97334 -1.58663 14520 ft 314 kts 326°
2026-05-04 23:18 52.99183 -1.60570 14153 ft 313 kts 326°
2026-05-04 23:19 53.01036 -1.62482 13795 ft 313 kts 326°
2026-05-04 23:19 53.02883 -1.64392 13382 ft 312 kts 326°
2026-05-04 23:19 53.04697 -1.66270 12994 ft 311 kts 325°
2026-05-04 23:19 53.06328 -1.68527 12611 ft 306 kts 309°
2026-05-04 23:20 53.07670 -1.71238 12268 ft 302 kts 308°
2026-05-04 23:20 53.09010 -1.73921 11909 ft 298 kts 308°
2026-05-04 23:20 53.10332 -1.76519 11551 ft 291 kts 309°
2026-05-04 23:20 53.11626 -1.79046 11213 ft 283 kts 309°
2026-05-04 23:21 53.12895 -1.81513 10882 ft 277 kts 309°
2026-05-04 23:21 53.14143 -1.83939 10578 ft 274 kts 309°
2026-05-04 23:21 53.15363 -1.86315 10270 ft 273 kts 309°
2026-05-04 23:21 53.16595 -1.88714 9957 ft 273 kts 309°
2026-05-04 23:22 53.17841 -1.91143 9545 ft 278 kts 310°
2026-05-04 23:22 53.19101 -1.93571 9201 ft 277 kts 314°
2026-05-04 23:22 53.20734 -1.95228 8837 ft 279 kts 346°
2026-05-04 23:22 53.22654 -1.95289 8615 ft 276 kts
2026-05-04 23:23 53.24538 -1.94925 8488 ft 268 kts
2026-05-04 23:23 53.26382 -1.94550 8251 ft 267 kts
2026-05-04 23:23 53.28197 -1.94174 8165 ft 259 kts
2026-05-04 23:23 53.29970 -1.93802 7939 ft 256 kts
2026-05-04 23:24 53.31723 -1.93434 7670 ft 255 kts
2026-05-04 23:24 53.33454 -1.93073 7405 ft 252 kts
2026-05-04 23:24 53.35190 -1.92710 7000 ft 251 kts
2026-05-04 23:24 53.36923 -1.92351 6595 ft 251 kts
2026-05-04 23:25 53.38647 -1.92000 6188 ft 249 kts
2026-05-04 23:25 53.40365 -1.91647 5757 ft 248 kts
2026-05-04 23:25 53.42069 -1.91294 5369 ft 246 kts
2026-05-04 23:25 53.43769 -1.90946 5029 ft 245 kts
2026-05-04 23:26 53.45431 -1.90615 4998 ft 241 kts
2026-05-04 23:26 53.47019 -1.91051 4989 ft 230 kts 329°
2026-05-04 23:26 53.48350 -1.92514 4991 ft 229 kts 324°
2026-05-04 23:26 53.49669 -1.94030 4989 ft 230 kts 324°
2026-05-04 23:27 53.50969 -1.95602 4983 ft 230 kts 315°
2026-05-04 23:27 53.51740 -1.97888 4828 ft 230 kts 279°
2026-05-04 23:27 53.51471 -2.00467 4584 ft 226 kts 240°
2026-05-04 23:27 53.50296 -2.02138 4277 ft 225 kts 201°
2026-05-04 23:28 53.48821 -2.02924 3976 ft 219 kts 206°
2026-05-04 23:28 53.47537 -2.04196 3724 ft 210 kts 216°
2026-05-04 23:28 53.46405 -2.05632 3447 ft 203 kts 224°
2026-05-04 23:28 53.45420 -2.07189 3186 ft 197 kts 226°
2026-05-04 23:29 53.44488 -2.08826 2920 ft 192 kts 231°
2026-05-04 23:29 53.43635 -2.10518 2673 ft 187 kts 233°
2026-05-04 23:29 53.42818 -2.12194 2416 ft 184 kts 234°
2026-05-04 23:29 53.42037 -2.13799 2185 ft 178 kts 234°
2026-05-04 23:30 53.41294 -2.15325 1937 ft 167 kts 234°
2026-05-04 23:30 53.40568 -2.16817 1725 ft 165 kts 234°
2026-05-04 23:30 53.39860 -2.18276 1490 ft 162 kts 234°
2026-05-04 23:30 53.39154 -2.19725 1270 ft 156 kts 233°
2026-05-04 23:31 53.38501 -2.21069 1041 ft 144 kts 232°
2026-05-04 23:31 53.37893 -2.22319 886 ft 136 kts 232°
2026-05-04 23:31 53.37291 -2.23557 669 ft 136 kts 230°
2026-05-04 23:31 53.36696 -2.24762 488 ft 133 kts 231°
2026-05-04 23:32 53.36118 -2.25953 305 ft 132 kts 232°
2026-05-04 23:32 53.35594 -2.27042 256 ft 94 kts 231°
2026-05-04 23:32 53.35336 -2.27585 241 ft 20 kts 236°
2026-05-04 23:32 53.35264 -2.27841 239 ft 23 kts 255°
2026-05-04 23:33 53.35236 -2.28103 230 ft 23 kts 263°
2026-05-04 23:33 53.35288 -2.28191 233 ft 15 kts 36°
2026-05-04 23:33 53.35360 -2.28077 237 ft 14 kts 45°
2026-05-04 23:33 53.35418 -2.27981 237 ft 13 kts 43°
2026-05-04 23:34 53.35455 -2.27907 238 ft 13 kts 69°
2026-05-04 23:34 53.35471 -2.27765 238 ft 13 kts 54°
2026-05-04 23:34 53.35542 -2.27617 240 ft 21 kts 51°
2026-05-04 23:34 53.35631 -2.27431 245 ft 20 kts 51°
2026-05-04 23:35 53.35718 -2.27252 254 ft 20 kts 51°
2026-05-04 23:35 53.35801 -2.27076 254 ft 19 kts 56°
2026-05-04 23:35 53.35842 -2.26966 254 ft 8 kts 58°
2026-05-04 23:35 53.35876 -2.26888 254 ft 8 kts 52°
2026-05-04 23:36 53.35912 -2.26827 254 ft 8 kts 26°
2026-05-04 23:36 53.35977 -2.26835 254 ft 11 kts 24°
2026-05-04 23:36 53.36033 -2.26776 254 ft 6 kts 334°
2026-05-04 23:36 53.36060 -2.26837 254 ft 7 kts 313°
2026-05-04 23:37 53.36062 -2.26840 254 ft 0 kts 313°